Regional Weather Roundup
Issued by NWS

Home | Current Version | Previous Version | Text Only | Print | Product List | Glossary Off
Versions: 1 2 3 4 5 6 7 8 9 10 11 12 13 14 15 16 17 18 19 20 21 22 23 24 25 26 27 28 29 30 31 32 33 34 35 36 37 38 39 40 41 42 43 44 45 46 47 48 49 50

626
ASUS43 KOAX 240310
RWRNE

WEATHER ROUNDUP FOR NEBRASKA
NATIONAL WEATHER SERVICE OMAHA NE
900 PM CST MON JAN 23 2017

NOTES: SATELLITE DATA IS BEING USED TO AUGMENT CLOUD COVER ABOVE
       12000 FEET.
       "FAIR" INDICATES FEW OR NO CLOUDS BELOW 12,000 FEET WITH NO
       SIGNIFICANT WEATHER AND/OR OBSTRUCTIONS TO VISIBILITY.

  * THESE STATIONS DO NOT REPORT WEATHER SUCH AS RAIN...SNOW OR FOG.

NEZ001>004-019>022-054>056-240400-
NEBRASKA PANHANDLE

CITY           SKY/WX    TMP DP  RH WIND       PRES   REMARKS
SCOTTSBLUFF    CLOUDY    35  27  72 NE8       29.57S WCI  29
ALLIANCE       CLOUDY    31  26  82 N12       29.59R WCI  22
CHADRON        FOG       24  23  96 NE13      29.69S VSB 1/2 WCI  12
KIMBALL        CLOUDY    34  31  90 NE6       29.56F WCI  28
SIDNEY         CLOUDY    34  27  75 E7        29.56F WCI  28
$$

NEZ057>060-069>072-079>082-240400-
SOUTHWEST NEBRASKA

CITY           SKY/WX    TMP DP  RH WIND       PRES   REMARKS
NORTH PLATTE   CLEAR     30  27  88 E7        29.60S WCI  23
IMPERIAL       CLOUDY    38  29  70 E9        29.56S WCI  31
LEXINGTON      FOG       33  32  97 E9        29.64S VSB 1/2 WCI  25
MCCOOK         CLOUDY    37  31  78 E9        29.58R WCI  30
OGALLALA       CLOUDY    35  30  83 CALM      29.60R
$$

NEZ005>010-023>029-035>040-094-240400-
NORTH CENTRAL NEBRASKA

CITY           SKY/WX    TMP DP  RH WIND       PRES   REMARKS
VALENTINE      PTCLDY    28  25  88 NE8       29.67R WCI  20
AINSWORTH      MOCLDY    30  30 100 SE10      29.67R WCI  21
BROKEN BOW     FOG       32  31  96 E10       29.67R VSB 1/4 WCI  24
O`NEILL        CLOUDY    33  32  97 SE13      29.74R WCI  23
ORD            CLOUDY    33  30  88 SE14      29.71R FOG     WCI  23
THEDFORD       CLEAR     30  29  94 E8        29.64S WCI  23
$$

NEZ041-046>049-061>064-073>077-083>087-240400-
SOUTH CENTRAL NEBRASKA

CITY           SKY/WX    TMP DP  RH WIND       PRES   REMARKS
GRAND ISLAND   CLOUDY    32  32 100 SE13G21   29.72R WCI  22
AURORA         CLOUDY    32  32 100 SE17      29.72S FOG     WCI  21
HASTINGS       CLOUDY    32  31  96 SE16      29.70F FOG     WCI  21
HEBRON         CLOUDY    33  33 100 SE9       29.74F FOG     WCI  25
HOLDREGE       CLEAR     32  31  95 E12       29.65R WCI  23
KEARNEY *      CLOUDY    34  30  86 SE16      29.67S WCI  23
YORK           CLEAR     32  32 100 SE16      29.75R FOG     WCI  21
$$

NEZ011>018-030>034-042>045-240400-
NORTHEAST NEBRASKA

CITY           SKY/WX    TMP DP  RH WIND       PRES   REMARKS
NORFOLK        CLOUDY    31  28  89 E12       29.77F WCI  22
ALBION         CLOUDY    33  30  88 SE12      29.76S FOG     WCI  24
BLAIR          CLOUDY    32  29  90 SE9       29.81S WCI  24
FREMONT        CLOUDY    32  30  92 SE10      29.82S WCI  24
TEKAMAH        CLOUDY    32  28  85 SE7       29.84R WCI  26
WAYNE          CLOUDY    32  30  93 SE7       29.81S WCI  26
$$

NEZ050>053-065>068-078-088>093-240400-
SOUTHEAST NEBRASKA

CITY           SKY/WX    TMP DP  RH WIND       PRES   REMARKS
LINCOLN        CLOUDY    33  30  88 E9        29.82R WCI  25
OMAHA EPPLEY   CLOUDY    33  27  78 SE9       29.84S WCI  25
BEATRICE       CLOUDY    33  32  94 SE9       29.77F FOG     WCI  26
FALLS CITY     CLEAR     29  27  92 E7        29.82S WCI  22
NEBRASKA CITY  PTCLDY    32  31  96 SE9       29.82S WCI  24
PLATTSMOUTH    MOCLDY    31  27  84 E7        29.82S WCI  25
$$

NEZ044-045-051>053-067-240400-
OMAHA AREA

CITY           SKY/WX    TMP DP  RH WIND       PRES   REMARKS
OMAHA EPPLEY   CLOUDY    33  27  78 SE9       29.84S WCI  25
BLAIR          CLOUDY    32  29  90 SE9       29.81S WCI  24
FREMONT        CLOUDY    32  30  92 SE10      29.82S WCI  24
MILLARD        CLOUDY    34  31  87 SE8       29.83S WCI  27
OFFUTT AFB     CLOUDY    32  32  99 E8        29.83S WCI  25
PLATTSMOUTH    MOCLDY    31  27  84 E7        29.82S WCI  25
WAHOO          CLOUDY    32  30  92 SE12      29.82R WCI  23
$$




USA.gov is the U.S. government's official web portal to all federal, state and local government web resources and services.